map of PLL home
PLL - Airport
Location
City:  Manaus, Amazonas, Brazil
Name:Manaus AFB
Old (Alt.):Ponta Pelada Airport
ICAO:SBMN
IATA:PLL

Details
Type:Airport (Aerodrome, Airfield)
Use:Military
Latitude:308'46"S (-3.146041)
Longitude:5959'11"W (-59.986299)
Datum:WGS 1984
Elevation:267 ft (81 m)
Variation:15.78W (WMM2015 magnetic declination)
-0.12 annual change
Runways:1
Longest:7605 × 148 ft (2318 × 45 m), paved

Time
Time Zone:UTC-4
Local Time:

Weather
METAR:SBMN 190300Z 16002KT CAVOK 27/23 Q1011
TAF:SBMN 182200Z 1900/1924 15002KT 9999 FEW020 TN25/1907Z TX31/1917Z
BECMG 1901/1903 33005KT CAVOK
BECMG 1905/1907 22005KT SCT010
BECMG 1909/1911 09005KT FEW020
BECMG 1913/1915 15005KT
BECMG 1917/1919 FEW020 FEW025TCU
BECMG 1921/1923 CAVOK
RMK PDY

Related Locations
Nearby:
Farthest:SMM: 12307 mi / 19806 km
Semporna, 12, MY

Find:

   beyond  
but within

Other Information
Maps:
NOTAMs:
Links:
Sources:

  
flag of Brazil
flag of Amazonas
flag of Manaus
  

Sectional Chart

Flight Planning
at skyvector.com

Satellite Image

Google Maps Satellite view

 

Copyright © 2004-2017 Karl L. Swartz. All rights reserved.
The Great Circle Mapper name and logo are trademarks of the Great Circle Mapper.
All other trademarks mentioned herein belong to their respective owners.
Please see credits for attibutions and further copyright information.

  Follow gcmap on Facebook Follow gcmap on Twitter Follow gcmap on Google+ GCmap on LinkedIn

hCard Microformat

Geo Microformat